Weather in Maafushi

Maldives     3°56′29″N   73°29′25″E
temp.,
°C
wind,
m/s
gust,
m/s
humid.,
%
clouds,
%
prec.,
mm/h
press.,
hPa
HPBL,
m
17 september, fri
fri1723:00+29nw557497 0.4 1010801
02:00+28nw6674100 0.0 1008880
05:00+28wnw45707 0.0 1008805
08:00+28wnw567016 0.0 1010838
11:00+28wnw5673100 0.0 1010813
14:00+28wnw56737 0.0 1007936
17:00+29wnw5573100 0.1 1008833
20:00+28wnw447599 0.1 1010507
18 september, sat
sat1823:00+28nw5575100 0.4 1010792
02:00+28nw447699 0.0 1008747
05:00+28nw4477100 0.1 1009733
08:00+28nw3375100 0.0 1011655
11:00+28nw3474100 0.0 1011738
14:00+28nw4475100 0.0 1008826
17:00+29nw447580 0.1 1009775
20:00+28nnw5576100 0.0 1011757
19 september, sun
sun1923:00+28nnw5577100 0.0 1011702
02:00+28nw347796 0.0 1009716
05:00+28nw3477100 0.0 1010693
08:00+28nnw4477100 0.0 1012673
11:00+28nnw3376100 0.1 1012662
14:00+28nw447695 0.0 1009699
17:00+28nnw447613 0.0 1009780
20:00+28nw557547 0.1 1011752
20 september, mon
mon2023:00+28nw447698 0.1 1011689
02:00+28wnw3479100 0.1 1009591
05:00+27wnw3378100 3.2 1011294
08:00+28nw3375100 0.4 1013683
11:00+28nw4577100 0.4 1011681
14:00+28nw4476100 0.0 1009696
17:00+28wnw4576100 0.0 1009788
20:00+28wnw5575100 0.6 1011754
21 september, tue
tue2123:00+28wnw567693 0.6 1011711
02:00+28wnw6676100 0.3 1009821
05:00+28w5576100 0.4 1011818
08:00+28wnw5576100 0.1 1012802
11:00+28wnw5575100 0.7 1012852
14:00+28wnw667496 0.1 1009910
17:00+28wnw667498 0.1 1009932
20:00+28wnw667618 0.1 1011852